Regional Weather Roundup
Issued by NWS

Home | Current Version | Previous Version | Text Only | Print | Product List | Glossary On
Versions: 1 2 3 4 5 6 7 8 9 10 11 12 13 14 15 16 17 18 19 20 21 22 23 24 25 26 27 28 29 30 31 32 33 34 35 36 37 38 39 40 41 42 43 44 45 46 47 48 49 50
000
ASUS46 KSEW 090310
RWRWA

WASHINGTON REGIONAL WEATHER ROUNDUP
NATIONAL WEATHER SERVICE SEATTLE WA
700 PM PST MON FEB 08 2016

NOTE:"FAIR" INDICATES FEW OR NO CLOUDS BELOW 12,000 FEET WITH NO
SIGNIFICANT WEATHER AND/OR OBSTRUCTIONS TO VISIBILITY.

WAZ505-507>509-090400-
SEATTLE, TACOMA, EVERETT, AND VICINITY

CITY           SKY/WX    TMP DP  RH WIND       PRES   REMARKS
EVERETT        CLEAR     47  41  80 N5        30.35F
BOEING FIELD   CLEAR     50  44  80 NW3       30.34S
RENTON         CLEAR     53  45  74 NW12      30.32F
SEATAC AIRPORT PTCLDY    50  43  77 N12       30.33S
JBLM-MCCHORD   CLEAR     46  45  99 NE3       30.32S
PUYALLUP       FAIR      45  45 100 CALM      30.32S
BREMERTON      CLEAR     50  45  81 NE10      30.37S
JBLM-FT LEWIS  CLEAR     47  47  99 CALM      30.31F
TACOMA NARROWS CLEAR     51  44  77 N9        30.33S
$$

WAZ001-503-506-510-514-515-090400-
NORTH INTERIOR

CITY           SKY/WX    TMP DP  RH WIND       PRES   REMARKS
BELLINGHAM     CLEAR     43  41  93 CALM      30.36F
FRIDAY HARBOR  CLEAR     45  41  86 VRB3      30.38S
EASTSOUND      CLEAR     45  45 100 N7        30.37S
PORT ANGELES   CLEAR     42  40  92 SE6       30.37F
EDIZ HOOK      FAIR      44  42  93 S3        30.37F
PORT TOWNSEND  FAIR      39  39 100 CALM      30.37S
NAS WHIDBEY    PTCLDY    45  44  97 W3        30.41S
ARLINGTON      CLEAR     46  39  76 CALM      30.37S
BURLINGTON     CLEAR     46  43  87 NW8       30.36S
$$

WAZ020-022-039-040-504-511-512-090400-
SOUTHWEST INTERIOR

CITY           SKY/WX    TMP DP  RH WIND       PRES   REMARKS
SHELTON        CLEAR     48  44  86 N3        30.30F
OLYMPIA        CLEAR     48  42  80 N5        30.32S
CHEHALIS       FAIR      50  45  81 N5        30.30S
KELSO          CLEAR     50  43  76 CALM      30.30S
VANCOUVER      CLEAR     47  40  76 CALM      30.27S
SCAPPOOSE, OR  CLEAR     48  46  93 CALM      30.27R
PORTLAND, OR   PTCLDY    55  39  54 SE15      30.28R
$$

WAZ021-516-517-090400-
WASHINGTON COAST

CITY           SKY/WX    TMP DP  RH WIND       PRES   REMARKS
FORKS          CLEAR     55  44  66 NE7       30.24F
HOQUIAM        CLEAR     54  46  74 E18       30.23F
ASTORIA, OR    CLEAR     58  46  64 E14       30.17F
$$

WAZ019-023-024-040-518-519-090400-
CASCADE MOUNTAINS AND COLUMBIA GORGE

CITY           SKY/WX    TMP DP  RH WIND       PRES   REMARKS
STAMPEDE PASS  NOT AVBL
TROUTDALE, OR  CLEAR     53  38  56 E26G38    30.28S
THE DALLES, OR CLEAR     44  35  70 E3        30.53R
$$

WAZ026-027-041>044-520-521-090400-
EAST SLOPES

CITY           SKY/WX    TMP DP  RH WIND       PRES   REMARKS
OMAK           CLEAR     26  24  92 NW3       30.59S
WENATCHEE      PTCLDY    37  29  72 NW3       30.57R
ELLENSBURG     CLEAR     31  25  78 CALM      30.54S
YAKIMA         CLEAR     39  30  70 W6        30.54S
$$

WAZ028-034-035-090400-
COLUMBIA BASIN

CITY           SKY/WX    TMP DP  RH WIND       PRES   REMARKS
EPHRATA        PTCLDY    39  30  70 NW9       30.54S
MOSES LAKE     PTCLDY    37  31  78 N8        30.55R
PASCO          CLEAR     38  33  82 NW5       30.55S
HERMISTON, OR  CLEAR     41  33  73 NE6       30.52S
$$

WAZ036>038-090400-
NORTHEAST WASHINGTON

CITY           SKY/WX    TMP DP  RH WIND       PRES   REMARKS
SPOKANE GEIGER PTCLDY    39  31  72 CALM      30.51F
SPOKANE FELTS  PTCLDY    39  32  76 CALM      30.53S
FAIRCHILD AFB  PTCLDY    41  31  68 N6        30.51S
COEURDALENE,ID CLEAR     36  30  80 E7        30.50S
DEER PARK      PTCLDY    34  28  79 N5        30.53S
$$

WAZ029>033-090400-
SOUTHEAST WASHINGTON

CITY           SKY/WX    TMP DP  RH WIND       PRES   REMARKS
PULLMAN        PTCLDY    43  35  73 CALM      30.51F
LEWISTON, ID   PTCLDY    47  36  65 CALM      30.50F
WALLA WALLA    CLEAR     40  35  83 SE3       30.52F
PENDLETON, OR  CLEAR     38  34  85 NE9       30.50S
$$



USA.gov is the U.S. government's official web portal to all federal, state and local government web resources and services.